This demonstration page uses our WeatherBlox Daily Observations layout. Learn more.

Left ArrowRight Arrow

Hourly Observations for September 5, 2018

Temp ( °F °C ) Dew Point ( °F °C ) Humidity (%) Winds ( mph kmh ) Pressure ( in mb ) Visibility ( mi km ) Precip ( " mm )
12:53 am 00:53 Clear with Mist and Fog 71 21.7 70 21.1 96 96 Calm 30.18 1022 5 8 0.00 0.00
1:53 am 01:53 Clear with Mist and Fog 71 21.7 69 20.6 94 94 Calm 30.17 1022 5 8 0.00 0.00
2:53 am 02:53 Clear with Mist and Fog 70 21.1 69 20.6 97 97 Calm 30.16 1021 4 6 0.00 0.00
3:53 am 03:53 Clear with Mist and Fog 70 21.1 68 20 93 93 Calm 30.16 1021 6 10 0.00 0.00
4:53 am 04:53 Clear with Mist and Fog 70 21.1 68 20 93 93 Calm 30.16 1021 3 5 0.00 0.00
5:02 am 05:02 Clear with Mist and Fog 69 20.6 68 20 96 96 Calm 30.15 1021 3 4 0.00 0.00
5:09 am 05:09 Clear 69 20.6 68 20 96 96 Calm 30.15 1021 7 11 0.00 0.00
5:53 am 05:53 Clear with Mist and Fog 69 20.6 68 20 96 96 Calm 30.16 1021 5 8 0.00 0.00
6:53 am 06:53 Clear with Mist and Fog 68 20 67 19.4 96 96 Calm 30.18 1022 3 5 0.00 0.00
7:53 am 07:53 Sunny with Mist and Fog 71 21.7 70 21.1 96 96 Calm 30.19 1022 5 8 0.00 0.00
8:53 am 08:53 Sunny with Light Rain 78 25.6 75 23.9 90 90 Calm 30.20 1023 9 14 0.00 0.03
9:53 am 09:53 Sunny 82 27.8 75 23.9 79 79 Calm 30.19 1022 10 16 0.00 0.03
10:53 am 10:53 Sunny 86 30 74 23.3 67 67 Calm 30.19 1022 10 16 0.00 0.00
11:53 am 11:53 Sunny 89 31.7 74 23.3 61 61 WNW 5 7 30.19 1022 10 16 0.00 0.00
12:53 pm 12:53 Sunny 90 32.2 73 22.8 58 58 VRB 5 7 30.17 1022 10 16 0.00 0.00
1:27 pm 13:27 Sunny with Nearby Thunderstorms 92 33.3 74 23.3 56 56 VRB 7 11 30.12 1020 10 16 0.00 0.00
1:35 pm 13:35 Sunny with Thunderstorms 91 32.8 73 22.8 56 56 VRB 6 9 30.12 1020 10 16 0.00 0.00
1:50 pm 13:50 Partly Cloudy with Nearby Thunderstorms 91 33 72 22 52 52 SW 7 11 30.12 1020 10 16 0.00 0.00
1:53 pm 13:53 Partly Cloudy with Nearby Thunderstorms 92 33.3 73 22.8 54 54 WSW 7 11 30.16 1021 10 16 0.00 0.00
2:32 pm 14:32 Partly Cloudy 92 33.3 72 22.2 52 52 WSW 8 13 30.09 1019 10 16 0.00 0.00
2:50 pm 14:50 Partly Cloudy with Nearby Thunderstorms 91 33 72 22 52 52 VRB 6 9 30.09 1019 10 16 0.00 0.00
2:53 pm 14:53 Partly Cloudy with Nearby Thunderstorms 92 33.3 72 22.2 52 52 VRB 6 9 30.14 1021 10 16 0.00 0.00
3:13 pm 15:13 Sunny 92 33.3 71 21.7 51 51 VRB 3 6 30.09 1019 10 16 0.00 0.00
3:24 pm 15:24 Sunny with Nearby Thunderstorms 93 33.9 70 21.1 47 47 VRB 3 6 30.09 1019 10 16 0.00 0.00
3:53 pm 15:53 Mostly Cloudy 91 32.8 70 21.1 50 50 VRB 3 6 30.12 1020 10 16 0.00 0.00
4:20 pm 16:20 Mostly Cloudy with Nearby Thunderstorms 86 30 70 21.1 59 59 ENE 15 24 30.09 1019 10 16 0.00 0.00
4:28 pm 16:28 Cloudy with Thunderstorms 87 30.6 71 21.7 59 59 ENE 13 20 30.06 1018 10 16 0.00 0.00
4:53 pm 16:53 Cloudy with Thunderstorms 81 27.2 72 22.2 74 74 E 12 19 30.13 1020 3 5 0.08 2.03
4:55 pm 16:55 Cloudy with Strong Thunderstorms 80 26.7 72 22.2 76 76 ESE 10 17 30.12 1020 2 3 0.07 1.78
4:57 pm 16:57 Cloudy with Strong Thunderstorms 78 25.6 72 22.2 82 82 SSE 9 15 30.12 1020 1 1 0.14 3.56
5:11 pm 17:11 Cloudy with Strong Thunderstorms 74 23.3 67 19.4 79 79 SSE 7 11 30.12 1020 1 2 0.30 7.62
5:20 pm 17:20 Cloudy with Strong Thunderstorms 72 22.2 67 19.4 84 84 VRB 7 11 30.15 1021 1 1 0.47 11.94
5:34 pm 17:34 Cloudy with Strong Thunderstorms 74 23.3 70 21.1 88 88 WNW 7 11 30.12 1020 2 3 0.60 15.24
5:40 pm 17:40 Mostly Cloudy with Thunderstorms 72 22.2 70 21.1 94 94 Calm 30.12 1020 3 5 0.60 15.24
5:53 pm 17:53 Mostly Cloudy with Thunderstorms 73 22.8 70 21.1 90 90 WSW 7 11 30.16 1021 9 14 0.60 15.24
6:53 pm 18:53 Cloudy with Thunderstorms 74 23.3 72 22.2 94 94 W 8 13 30.20 1023 10 16 0.00 0.03
7:04 pm 19:04 Cloudy with Nearby Thunderstorms 74 23.3 71 21.7 91 91 WNW 8 13 30.18 1022 10 16 0.00 0.03
7:51 pm 19:51 Mostly Cloudy with Rain 72 22 70 21 94 94 WSW 3 6 30.18 1022 5 8 0.05 1.27
7:53 pm 19:53 Cloudy with Rain 72 22.2 70 21.1 94 94 WSW 3 6 30.19 1022 4 6 0.06 1.52
8:10 pm 20:10 Cloudy with Thunderstorms 72 22.2 70 21.1 94 94 WNW 6 9 30.15 1021 5 8 0.04 1.02
8:25 pm 20:25 Cloudy with Nearby Thunderstorms 72 22.2 71 21.7 97 97 NW 7 11 30.15 1021 5 8 0.06 1.52
8:53 pm 20:53 Mostly Cloudy with Light Rain 72 22.2 71 21.7 97 97 WNW 5 7 30.19 1022 6 10 0.12 3.05
9:53 pm 21:53 Clear 72 22.2 70 21.1 94 94 Calm 30.18 1022 8 13 0.01 0.25
10:53 pm 22:53 Clear with Mist and Fog 72 22.2 70 21.1 94 94 Calm 30.19 1022 6 10 0.00 0.00
11:53 pm 23:53 Clear 72 22.2 71 21.7 97 97 Calm 30.18 1022 7 11 0.00 0.00

Powered by AerisWeather